Regional Weather Roundup
Issued by NWS Jackson, KY

Home | Current Version | Previous Version | Text Only | Print | Product List | Glossary On
Versions: 1 2 3 4 5 6 7 8 9 10 11 12 13 14 15 16 17 18 19 20 21 22 23 24 25 26 27 28 29 30 31 32 33 34 35 36 37 38 39 40 41 42 43 44 45 46 47 48 49 50
000
ASUS43 KJKL 301210
RWRJKL

EAST KENTUCKY HOURLY WEATHER ROUNDUP
NATIONAL WEATHER SERVICE JACKSON KY
800 AM EDT MON MAR 30 2015

NOTE: "FAIR" INDICATES FEW OR NO CLOUDS BELOW 12,000 FEET WITH
NO SIGNIFICANT WEATHER AND/OR OBSTRUCTIONS TO VISIBILITY.

* THESE REPORTS ARE NOT UNDER NWS QUALITY CONTROL AND MAY NOT
  REPORT WEATHER SUCH AS PRECIPITATION AND FOG.

KYZ079-080-083-085-087-088-110-112-115-119-120-301300
...EASTERN KENTUCKY...

CITY           SKY/WX    TMP DP  RH WIND       PRES   REMARKS
JACKSON        CLOUDY    46  43  89 SW3       30.06R
6HR MIN TEMP:  44; 6HR MAX TEMP:  50; 6HR PCP:  0.07;

LONDON         CLOUDY    46  42  86 CALM      30.08R
6HR MIN TEMP:  46; 6HR MAX TEMP:  48; 6HR PCP:  0.09;

SOMERSET*      PTCLDY    45  41  87 W3        30.10R
MONTICELLO*    PTCLDY    44  43  97 CALM      30.12R
6HR MIN TEMP:  44; 6HR MAX TEMP:  49; 6HR PCP:  0.02;

MIDDLESBORO*   CLOUDY    47  46  97 CALM      30.09R
6HR MIN TEMP:  45; 6HR MAX TEMP:  56; 6HR PCP:  0.12;

HAZARD APT*    CLOUDY    46  46 100 SW5       30.07R
BLACK MTN*       N/A     37  37 100 NW3         N/A
PIKEVILLE APT* LGT RAIN  45  43  93 SW3       30.04R
BIG SANDY*     DRIZZLE   46  44  91 W7        30.04R
6HR MIN TEMP:  46; 6HR MAX TEMP:  51;

MOREHEAD APT*  SUNNY     45  36  70 NW8       30.08R
$$

KYZ035-036-041-042-044-050-067-078-099-301300
...CENTRAL KENTUCKY...

CITY           SKY/WX    TMP DP  RH WIND       PRES   REMARKS
MT STERLING*   CLEAR     43  37  81 N5        30.08R
FLEMING/MASON* CLEAR     41  32  70 W5        30.07R
DANVILLE*      CLEAR     45  41  87 NW6       30.09R
RICHMOND*      MOCLDY    45  41  87 CALM      30.07R
LEXINGTON      CLEAR     43  38  82 NW3       30.08R
6HR MIN TEMP:  42; 6HR MAX TEMP:  50; 6HR PCP: TRACE;

FRANKFORT      CLEAR     37  36  96 CALM      30.07R
6HR MIN TEMP:  37; 6HR MAX TEMP:  51;

$$

KYZ091>093-OHZ055-061-077-WVZ005-015-034-035-042-301300
...SOUTHERN OHIO/WEST VIRGINIA...

CITY           SKY/WX    TMP DP  RH WIND       PRES   REMARKS
COVINGTON      PTCLDY    40  32  73 SW3       30.05R
COLUMBUS         N/A     38  32  79 W9        29.98R WCI  31
DAYTON         CLEAR     35  31  85 W9        30.01R WCI  28
WILMINGTON     CLEAR     39  31  72 W7        30.03R WCI  34
HUNTINGTON     CLOUDY    47  36  65 NW12G21   30.03R
CHARLESTON     MOCLDY    47  43  86 SW9       30.01R
PINEVILLE*     CLOUDY    45  45 100 MISG      30.05R FOG
BECKLEY        LGT RAIN  42  39  89 W15       29.97R FOG
BLUEFIELD      CLOUDY    42  38  85 W9G22     29.97S
$$

VAZ002-007-008-TNZ017-027-036-066-071-301300
...SOUTHWEST VIRGINIA/EAST TENNESSEE...

CITY           SKY/WX    TMP DP  RH WIND       PRES   REMARKS
WISE*          CLOUDY    43  43 100 W5        30.04R
JONESVILLE*    CLOUDY    45  45 100 S3        30.09R
ABINGDON*      CLOUDY    42  39  88 W7        30.05S
BRISTOL        CLOUDY    43  40  89 SW5       30.07R
KNOXVILLE      CLOUDY    46  44  93 W7        30.11R FOG
OAK RIDGE      CLOUDY    48  44  86 VRB3      30.12R
CROSSVILLE     CLOUDY    46  43  89 W8        30.11R
NASHVILLE      PTCLDY    47  45  93 W9        30.14R
$$

...KEY TO REMARKS...
VSB - VISIBILITY IN MILES
WCI - WIND CHILL INDEX
HX  - HEAT INDEX

$$



USA.gov is the U.S. government's official web portal to all federal, state and local government web resources and services.